GW2364 Weather Reports


time (UTC)temp
F
wind
direction
speed
knots
gust
knots
rain 1hr
in
rain 24hr
in
rain mn
in
humidity
%
barometer
mb
20260506230004 63 26 2.6 9.6 0.00 0.00 0.00 81 1010.6
20260506224502 63 327 1.7 7.8 0.00 0.00 0.00 80 1010.6
20260506223002 63 299 1.7 9.6 0.00 0.00 0.00 80 1010.5
20260506221507 63 355 3.5 10.4 0.00 0.00 0.00 79 1010.4
20260506220013 64 330 3.5 10.4 0.00 0.00 0.00 78 1010.6
20260506214504 65 340 3.5 9.6 0.00 0.00 0.00 76 1010.3
20260506213002 66 360 3.5 10.4 0.00 0.00 0.00 76 1010.1
20260506211502 68 355 5.2 11.3 0.00 0.00 0.00 72 1010.1
20260506210010 68 9 1.7 12.2 0.00 0.00 0.00 75 1010.2
20260506204502 70 355 3.5 7.0 0.00 0.00 0.00 71 1010.3
20260506203002 71 13 2.6 11.3 0.00 0.00 0.00 72 1010.3
20260506201502 72 5 3.5 11.3 0.00 0.00 0.00 73 1010.2
20260506200005 73 317 6.1 10.4 0.00 0.00 0.00 72 1009.9
20260506194502 73 45 2.6 10.4 0.00 0.00 0.00 75 1009.7
20260506193001 74 21 5.2 11.3 0.00 0.00 0.00 72 1009.6
20260506191502 76 32 5.2 12.2 0.00 0.00 0.00 74 1009.4
20260506190005 76 34 2.6 7.8 0.00 0.00 0.00 73 1009.9
20260506184501 77 42 3.5 7.0 0.00 0.00 0.00 73 1009.8
20260506183004 78 34 1.7 5.2 0.00 0.00 0.00 73 1009.5
20260506181501 77 49 2.6 6.1 0.00 0.00 0.00 74 1009.7
20260506180008 75 55 2.6 7.8 0.00 0.00 0.00 76 1009.5
20260506174501 75 69 1.7 6.1 0.00 0.00 0.00 76 1009.5
20260506173001 73 75 2.6 7.0 0.00 0.00 0.00 79 1009.5
20260506171501 71 75 2.6 6.1 0.00 0.00 0.00 81 1009.8
20260506170003 68 50 3.5 7.8 0.00 0.00 0.00 84 1009.7
20260506164502 65 68 3.5 9.6 0.00 0.00 0.00 90 1010.2
20260506163005 63 319 1.7 16.5 0.00 0.00 0.00 91 1010.7
20260506161502 64 54 9.6 20.0 0.00 0.00 0.00 88 1010.7
20260506160005 65 52 11.3 23.5 0.00 0.00 0.00 89 1010.3
20260506154501 67 5 9.6 16.5 0.00 0.00 0.00 87 1010.3
20260506153005 70 28 7.8 14.8 0.00 0.00 0.00 83 1010.0
20260506151501 77 101 0.0 2.6 0.00 0.00 0.00 87 1009.1
20260506150003 77 101 0.0 2.6 0.00 0.00 0.00 86 1009.2
20260506144500 77 88 0.9 3.5 0.00 0.00 0.00 86 1008.6
20260506143001 77 94 0.9 5.2 0.00 0.00 0.00 88 1008.2
20260506141502 76 94 0.9 5.2 0.00 0.00 0.00 90 1007.7
20260506140003 75 69 0.0 2.6 0.00 0.00 0.00 91 1008.4
20260506134500 75 62 0.9 2.6 0.00 0.00 0.00 91 1007.7
20260506133001 74 92 0.9 3.5 0.00 0.00 0.00 92 1007.8
20260506131504 74 65 0.9 5.2 0.00 0.00 0.00 93 1007.6
20260506130004 74 80 0.0 2.6 0.00 0.00 0.00 93 1007.4
20260506124501 74 125 0.9 3.5 0.00 0.00 0.00 93 1007.2
20260506123002 73 71 0.9 1.7 0.00 0.00 0.00 93 1007.2
20260506121601 73 223 0.0 0.9 0.00 0.00 0.00 93 1007.3
20260506120115 74 223 0.0 0.9 0.00 0.00 0.00 93 1007.2
20260506120006 74 223 0.0 0.9 0.00 0.00 0.00 93 1007.1
20260506114502 74 223 0.0 0.9 0.00 0.00 0.00 92 1007.0
20260506113101 74 223 0.0 0.9 0.00 0.00 0.00 92 1007.2
20260506111601 74 223 0.0 0.0 0.00 0.00 0.00 92 1007.1
20260506110100 74 223 0.0 0.9 0.00 0.00 0.00 92 1007.1
20260506110004 74 223 0.0 0.9 0.00 0.00 0.00 92 1007.1
20260506104602 74 223 0.0 0.9 0.00 0.00 0.00 92 1007.0
20260506103101 74 227 0.0 1.7 0.00 0.00 0.00 92 1006.7
20260506101632 74 227 0.9 4.3 0.00 0.00 0.00 92 1006.6
20260506100106 74 237 0.9 4.3 0.00 0.00 0.00 92 1006.5
20260506100004 74 232 0.0 3.5 0.00 0.00 0.00 92 1006.5
20260506094614 74 233 0.9 4.3 0.00 0.00 0.00 93 1006.4
20260506093100 74 234 0.9 4.3 0.00 0.00 0.00 93 1006.2
20260506091606 74 241 0.9 6.1 0.00 0.00 0.00 93 1006.0
20260506090008 74 85 0.9 3.5 0.00 0.00 0.00 91 1005.9
20260506084602 74 228 1.7 7.8 0.00 0.00 0.00 91 1005.9
20260506083106 74 257 1.7 6.1 0.00 0.00 0.00 91 1006.0
20260506083002 75 100 1.7 6.1 0.00 0.00 0.00 91 1005.9
20260506081600 74 223 0.9 6.1 0.00 0.00 0.00 90 1006.0
20260506080110 75 204 0.0 2.6 0.00 0.00 0.00 90 1006.1
20260506073114 75 145 0.0 6.1 0.00 0.00 0.00 90 1006.3
20260506071602 75 342 1.7 7.0 0.00 0.00 0.00 90 1006.4
20260506061609 75 223 0.0 3.5 0.00 0.00 0.00 90 1006.5
20260506044502 75 217 0.0 5.2 0.00 0.00 0.00 90 1006.5
20260506043002 75 94 0.9 3.5 0.00 0.00 0.00 89 1006.5
20260506041502 76 100 0.0 5.2 0.00 0.00 0.00 88 1006.3
20260506040008 76 78 0.9 5.2 0.00 0.00 0.00 88 1006.3
20260506034502 76 64 0.9 7.0 0.00 0.00 0.00 88 1006.1
20260506033002 76 115 0.0 3.5 0.00 0.00 0.00 88 1006.1
20260506031504 76 180 0.9 4.3 0.00 0.00 0.00 87 1005.8
20260506030005 77 92 0.9 6.1 0.00 0.00 0.00 86 1005.6
20260506024503 77 76 1.7 7.0 0.00 0.00 0.00 85 1005.4
20260506023002 77 82 0.0 4.3 0.00 0.00 0.00 84 1005.0
20260506021502 77 79 0.0 3.5 0.00 0.00 0.00 84 1004.7
20260506020003 77 103 0.9 3.5 0.00 0.00 0.00 83 1004.4
20260506014501 78 68 0.9 2.6 0.00 0.00 0.00 83 1004.4
20260506013002 78 78 0.9 2.6 0.00 0.00 0.00 82 1004.3
20260506011505 79 111 0.9 2.6 0.00 0.00 0.00 80 1004.3
20260506010005 80 90 0.0 1.7 0.00 0.00 0.00 78 1004.3
20260506004508 81 106 0.0 1.7 0.00 0.00 0.00 77 1004.3
20260506003002 82 106 0.0 0.9 0.00 0.00 0.00 75 1004.2
20260506001502 82 252 0.9 2.6 0.00 0.00 0.00 75 1004.3
20260506000004 82 252 1.7 6.1 0.00 0.00 0.00 73 1004.1
20260505234502 83 217 0.0 4.3 0.00 0.00 0.00 73 1003.9
20260505233002 83 169 0.9 4.3 0.00 0.00 0.00 72 1003.8
20260505231502 83 224 1.7 7.0 0.00 0.00 0.00 72 1003.8